TimeCDT,TemperatureF,Dew PointF,Humidity,Sea Level PressureIn,VisibilityMPH,Wind Direction,Wind SpeedMPH,Gust SpeedMPH,PrecipitationIn,Events,Conditions,WindDirDegrees,DateUTC
12:54 AM,46.9,42.1,83,30.14,10.0,South,5.8,-,N/A,,Clear,170,2013-09-14 05:54:00
1:54 AM,45.0,39.9,82,30.14,10.0,South,6.9,-,N/A,,Clear,180,2013-09-14 06:54:00
2:54 AM,45.0,39.9,82,30.14,10.0,SSW,8.1,-,N/A,,Clear,200,2013-09-14 07:54:00
3:54 AM,46.9,39.9,77,30.12,10.0,South,6.9,-,N/A,,Clear,180,2013-09-14 08:54:00
4:54 AM,44.1,39.9,85,30.12,10.0,South,6.9,-,N/A,,Clear,170,2013-09-14 09:54:00
5:54 AM,44.1,39.9,85,30.13,10.0,South,8.1,-,N/A,,Clear,180,2013-09-14 10:54:00
6:54 AM,44.1,39.0,82,30.12,10.0,South,8.1,-,N/A,,Clear,180,2013-09-14 11:54:00
7:54 AM,48.9,42.1,77,30.14,10.0,South,8.1,-,N/A,,Clear,180,2013-09-14 12:54:00
8:54 AM,55.9,43.0,62,30.13,10.0,South,11.5,-,N/A,,Clear,190,2013-09-14 13:54:00
9:54 AM,63.0,41.0,45,30.12,10.0,SSW,16.1,20.7,N/A,,Clear,210,2013-09-14 14:54:00
10:54 AM,66.0,39.9,38,30.09,10.0,SW,15.0,24.2,N/A,,Clear,220,2013-09-14 15:54:00
11:54 AM,69.1,42.1,38,30.08,10.0,SW,16.1,-,N/A,,Clear,220,2013-09-14 16:54:00
12:54 PM,72.0,43.0,35,30.06,10.0,SSW,12.7,20.7,N/A,,Clear,200,2013-09-14 17:54:00
1:54 PM,73.0,44.1,35,30.03,10.0,South,12.7,20.7,N/A,,Clear,180,2013-09-14 18:54:00
2:54 PM,72.0,43.0,35,30.00,10.0,South,15.0,20.7,N/A,,Clear,180,2013-09-14 19:54:00
3:54 PM,72.0,43.0,35,29.99,10.0,SSW,16.1,23.0,N/A,,Partly Cloudy,210,2013-09-14 20:54:00
4:54 PM,69.1,42.1,38,29.98,10.0,South,15.0,-,N/A,,Scattered Clouds,190,2013-09-14 21:54:00
5:54 PM,69.1,44.1,40,29.97,10.0,South,9.2,-,N/A,,Scattered Clouds,180,2013-09-14 22:54:00
6:54 PM,66.0,45.0,47,29.96,10.0,SSE,6.9,-,0.00,,Overcast,160,2013-09-14 23:54:00
7:54 PM,64.9,45.0,48,29.93,10.0,SSE,8.1,-,N/A,,Overcast,160,2013-09-15 00:54:00
8:54 PM,60.1,51.1,72,29.92,9.0,SSE,10.4,-,0.00,Rain,Rain,160,2013-09-15 01:54:00
9:54 PM,59.0,52.0,78,29.95,5.0,NNE,9.2,21.9,0.01,Rain,Heavy Rain,30,2013-09-15 02:54:00
10:21 PM,57.2,51.8,82,29.98,2.0,North,11.5,16.1,N/A,Rain,Heavy Rain,360,2013-09-15 03:21:00
10:32 PM,57.2,53.6,88,29.99,6.0,North,9.2,-,N/A,Rain,Light Rain,10,2013-09-15 03:32:00
10:54 PM,55.9,54.0,93,30.01,4.0,NE,5.8,-,N/A,Rain,Heavy Rain,50,2013-09-15 03:54:00
11:54 PM,55.0,54.0,96,29.98,4.0,East,9.2,-,0.00,Rain,Heavy Rain,100,2013-09-15 04:54:00